Regional Weather Roundup
Issued by NWS Kansas City/Pleasant Hill, MO

Home | Current Version | Previous Version | Graphics & Text | Print | Product List | Glossary Off
Versions: 1 2 3 4 5 6 7 8 9 10 11 12 13 14 15 16 17 18 19 20 21 22 23 24 25 26 27

000
ASUS43 KEAX 292310
RWREAX

WEATHER ROUNDUP FOR EASTERN KANSAS AND NORTHWEST MISSOURI
NATIONAL WEATHER SERVICE KANSAS CITY/PLEASANT HILL MO
600 PM CDT THU SEP 29 2016

KSZ040-057-103>105-MOZ028-029-037-043-300000-
...KANSAS CITY METROPOLITAN AREA...

CITY           SKY/WX    TMP DP  RH WIND       PRES   REMARKS
K.C. INTL      SUNNY     69  49  48 N7        30.28F
K.C. DOWNTOWN  SUNNY     72  46  39 N12       30.27F
LEES SUMMIT    SUNNY     70  46  42 N9        30.27F
OLATHE - IXD   SUNNY     68  49  50 N9        30.29F
OLATHE - OJC   SUNNY     69  46  43 N9        30.28F
LAWRENCE       SUNNY     71  47  42 NW8       30.29S

$$

MOZ001>008-011>017-020>025-030>033-038>040-044>046-053-054-300000-
...NORTHERN AND CENTRAL MISSOURI...

CITY           SKY/WX    TMP DP  RH WIND       PRES   REMARKS
ST. JOSEPH     SUNNY     71  47  42 N9        30.29F
MOSBY          CLEAR     72  45  37 N9        30.27S
WHITEMAN AFB   SUNNY     71  49  45 N10       30.23F
CLINTON        SUNNY     72  50  46 N10       30.25S
SEDALIA        SUNNY     74  48  39 N9        30.24F
WARSAW         NOT AVBL
CHILLICOTHE      N/A     73  50  44 N6        30.27F
KIRKSVILLE     CLEAR     71  49  45 N9        30.24S

$$

MOZ041-047>049-056>058-063>065-088>090-097-300000-
...EASTERN AND SOUTHERN MISSOURI...

CITY           SKY/WX    TMP DP  RH WIND       PRES   REMARKS
ST. LOUIS INTL CLOUDY    65  56  72 N8        30.18R
SPIRIT OF STL  CLOUDY    68  55  63 N8        30.17R
COLUMBIA       CLEAR     74  49  41 N14       30.20S
JEFFERSON CITY CLEAR     74  50  42 N9        30.18S
ROLLA          CLEAR     69  52  54 N6        30.18S
OSAGE BEACH    CLEAR     71  54  54 NW5       30.21F
SPRINGFIELD    SUNNY     70  45  40 N10       30.23R
BRANSON        SUNNY     72  46  40 N9G17     30.22S
JOPLIN         SUNNY     70  48  45 N7        30.26S
WEST PLAINS    CLEAR     70  50  49 N12       30.20S

$$

IAZ060-094-KSZ022-034>040-054-083-096-NEZ052-066-093-300000-
...KANSAS...SOUTHEAST NEBRASKA AND IOWA...

CITY           SKY/WX    TMP DP  RH WIND       PRES   REMARKS
TOPEKA         SUNNY     70  49  47 N8        30.29F
MANHATTAN      SUNNY     69  49  48 NE8       30.30F
EMPORIA        SUNNY     69  48  47 N9        30.30S
CHANUTE        SUNNY     71  48  43 N8        30.27F
WICHITA        MOSUNNY   70  49  47 NE8       30.30F
OMAHA          SUNNY     72  47  40 NE7       30.32F
LINCOLN        SUNNY     70  48  45 NE9       30.34F
FALLS CITY     SUNNY     71  47  42 NE7       30.30F
LAMONI         SUNNY     69  52  54 N7        30.29F
DES MOINES     SUNNY     73  45  36 N10       30.29F

$$





USA.gov is the U.S. government's official web portal to all federal, state and local government web resources and services.